Regional Weather Roundup
Issued by NWS Sterling, VA

Home | Current Version | Previous Version | Graphics & Text | Print | Product List | Glossary On
Versions: 1 2 3 4 5 6 7 8 9 10 11 12 13 14 15 16 17 18 19 20 21 22 23 24 25 26 27 28 29 30 31 32 33 34 35 36 37 38 39 40 41 42 43 44 45 46 47 48 49 50
000
ASUS41 KLWX 181710
RWRLWX

REGIONAL WEATHER ROUNDUP
NATIONAL WEATHER SERVICE BALTIMORE MD/WASHINGTON DC
1200 PM EST THU DEC 18 2014

Note: "FAIR" indicates few or no clouds below 12,000 feet
with no significant weather and/or obstructions to visibility.
 TC=TEMPERATURE CELSIUS

 * =Non NWS site. Station does not report precipitation (e.g. rain,
    snow, etc.), thunder, or fog.

DCZ001-MDZ009-015-VAZ040>042-051-053>054-181800-
WASHINGTON METRO

CITY           SKY/WX    TMP DP  RH WIND       PRES   REMARKS
WASHINGTON NAT PTSUNNY   41  21  44 NW10G22   30.17F
DULLES         PTSUNNY   36  21  54 W17       30.16F WCI  26
ANDREWS AFB    MOSUNNY   37  20  52 NW16      30.14F WCI  27
FT BELVOIR     MOSUNNY   39  20  47 NW16G29   30.16F
QUANTICO       MOSUNNY   41  21  44 N15G25    30.17F
COLLEGE PARK*  CLOUDY    37  21  52 NW6G22    30.15F
LEESBURG*      CLOUDY    36  27  69 NW15G22   30.17F WCI  26
MANASSAS*      PTSUNNY   37  23  56 N15G22    30.17F WCI  28
GAITHERSBURG*  CLOUDY    36  21  55 NW10G23   30.17F WCI  28

$$

MDZ006>007-011-014-181800-
BALTIMORE METRO

CITY           SKY/WX    TMP DP  RH WIND       PRES   REMARKS
BWI AIRPORT    PTSUNNY   37  21  52 NW12G23   30.13F
MD SCIENCE CTR   N/A     37  20  50 MISG      30.14F
MARTIN STATE   CLOUDY    39  25  56 W17       30.15F
ANNAPOLIS      PTSUNNY   38  21  50 W10G24    30.14F
FORT MEADE*    CLOUDY    37  23  56 NW14      30.17F WCI  29

$$

MDZ012-015-019>023-181800-
MARYLAND EASTERN SHORE

CITY           SKY/WX    TMP DP  RH WIND       PRES   REMARKS
OCEAN CITY     SUNNY     40  21  46 NW13G24   30.09F
SALISBURY      SUNNY     42  22  44 NW15G26   30.11F
BAY BRIDGE AP*   N/A     37  21  52 NW16      30.14F WCI  28
CAMBRIDGE*     MOSUNNY   41  23  48 NW13G20   30.12F
EASTON*        PTSUNNY   39  25  56 NW16      30.16F

$$

MDZ017>025-181800-
SOUTHERN MARYLAND

CITY           SKY/WX    TMP DP  RH WIND       PRES   REMARKS
PATUXENT RIVER MOSUNNY   40  21  46 NW17G23   30.13F
ST INIGOES     SUNNY     41  19  41 NW13G23   30.12F
LEONARDTOWN*   SUNNY     39  21  48 NW13G21   30.15F

$$

MDZ003>005-181800-
NORTH CENTRAL MARYLAND

CITY           SKY/WX    TMP DP  RH WIND       PRES   REMARKS
FREDERICK*     CLOUDY    37  19  48 NW12G20   30.18F
HAGERSTOWN APT CLOUDY    34  22  61 W13       30.14F WCI  25
WESTMINSTER*   CLOUDY    34  21  60 W9        30.11F WCI  26

$$

MDZ501>502-181800-
WESTERN MARYLAND

CITY           SKY/WX    TMP DP  RH WIND       PRES   REMARKS
OAKLAND*       CLOUDY    21 N/A N/A W6G17     30.07S
CUMBERLAND*    CLOUDY    32  21  64 W10       30.22S WCI  24

$$

VAZ025>031-181800-
SHENANDOAH VALLEY

CITY           SKY/WX    TMP DP  RH WIND       PRES   REMARKS
WINCHESTER*    CLOUDY    36  19  51 NW14      30.16F WCI  27
FRONT ROYAL*   CLOUDY    34  21  60 W7        30.15F
LURAY*         FAIR      39  23  52 N3        30.14F
NEW MARKET*    FAIR      38  21  50 NE3       30.13F
STAUNTON*      SUNNY     39  20  46 N3        30.13F
WAYNESBORO*    FAIR      37  19  47 NW7       30.10F

$$

WVZ021-048>050-054>055-181800-
EASTERN WEST VIRGINIA PANHANDLE

CITY           SKY/WX    TMP DP  RH WIND       PRES   REMARKS
MARTINSBURG    CLOUDY    34  20  56 W15       30.17F WCI  24
PETERSBURG*    MOSUNNY   34  16  47 NW8       30.17F WCI  28

$$

VAZ036>039-050-181800-
CENTRAL FOOTHILLS

CITY           SKY/WX    TMP DP  RH WIND       PRES   REMARKS
CHARLOTTESVILL MOSUNNY   41  20  43 CALM      30.12F
CULPEPER*      SUNNY     41  21  45 NW7       30.16F
ORANGE*        SUNNY     41  23  48 NW3       30.15F
GORDONSVILLE*  FAIR      41  22  47 E6        30.13F
WARRENTON*     FAIR      42  29  58 NW13      30.15F

$$

VAZ055>057-181800-
NORTH AND CENTRAL PIEDMONT

CITY           SKY/WX    TMP DP  RH WIND       PRES   REMARKS
FREDERICKSBRG* SUNNY     42  24  47 N12       30.15F
STAFFORD*      SUNNY     40  22  47 NW13      30.19F

$$

NCZ024-NYZ072-PAZ021-071-VAZ022-071-181800-
OTHER REGIONAL OBSERVATIONS

CITY           SKY/WX    TMP DP  RH WIND       PRES   REMARKS
NEW YORK CITY  CLOUDY    40  22  48 W8G17     29.99F
PHILADELPHIA   CLOUDY    38  22  52 W16G24    30.08F WCI  29
PITTSBURGH     FLURRIES  28  22  78 W10       30.18F WCI  19
ROANOKE        CLOUDY    37  22  54 W9        30.16F
RICHMOND       PTSUNNY   45  22  40 NW9       30.15F
RALEIGH        MOSUNNY   47  23  38 N3        30.15F

$$

ANZ530>537-181800-
MARINE OBSERVATIONS

STATION/POSITION TIME  TEMP    WIND        PRES
                       AIR SEA DIR/SP/G
                 (UTC) (F)     (DEG/KT/KT) (MB)
THOMAS PT LIGHT  1700   36 42  300/ 15/ 18 1021.4F
BALT KEY BRIDGE  1700   37     280/ 16/ 19 1020.4F
COVE POINT       1700   37     350/ 17/ 20 1020.5F
LEWISETTA        1700   39 43  340/  8/ 14 1020.5F
SOLOMONS ISLAND  1700      44                N/A
PINEY POINT      1700          340/ 17/ 20   N/A

$$




USA.gov is the U.S. government's official web portal to all federal, state and local government web resources and services.